星链-4026 (STARLINK-4026 )

导读

STARLINK-4026是美国太空探索技术公司(SpaceX)星链(Starlink)互联网卫星星座的成员,于2022年5月14日发射入轨,属于星链二代卫星批次。星链星座旨在为全球提供低延迟、高速率的卫星互联网服务,该卫星承担着为偏远地区等场景提供网络接入服务的相关任务,是SpaceX打造全球卫星互联网组网的重要一环。

Basic Information
目录编号:
52600
目录名称:
STARLINK-4026
国际标识:
2022-052C
轨道中心:
EARTH
卫星名称:
星链-4026
卫星全名:
星链-4026 (STARLINK-4026 )
卫星状态:
在轨 (已飞行1495 天)
发射日期:
2022-05-14 UTC
国别 :
美国 (US)
星等 :
--
Orbit Information
数据来源 国际轨道数据 AOE轨道数据
星历时间 2026-06-16T16:34:21+0800
1天前
查看轨道信息
2026-06-16T03:00:00+0800
1天前
查看轨道信息
半长轴 6917.903km 6917.907km
偏心率 0.0001215 0.0001429
轨道倾角 53.160° 53.156°
近地点辐角 84.886° 96.502°
升交点赤经 196.093° 198.637°
平近点角 275.227° 70.104°
近地点 538.925km 538.781km
远地点 540.607km 540.759km
周期 95.438分钟 95.438分钟
每日圈数 15.088329 15.088316
Detailed Information
固有亮度:
5
最大亮度:
2.5
卫星平台:
Starlink v1.5
覆盖范围:
全球
运营商:
太空探索技术公司
运营商所在国:
美国
制造商(研发单位):
太空探索技术公司
制造商所在国:
美国
使用方式:
暂无
Satellite Introduction
星链(Starlink)计划是由太空探索技术公司(SpaceX)提出的一个巨型低轨卫星互联网星座项目,计划在2019年至2024年间在太空搭建由约1.2万颗卫星组成的“星链”网络,其中1584颗将部署在地球上空550千米处的近地轨道,并从2020年开始工作。该卫星仍在工作。
2D Orbit Map
3D Orbit Map
Orbit Altitude Analysis Chart
Orbit Inclination Analysis Chart
Orbit Comprehensive Analysis Chart
View Comprehensive Chart